Вернуться в каталог

JILIN-1 GAOFEN 03D-47

АктивенНаукаSSO
NORAD 54692·PAYLOAD·🇨🇳 China
Это название спутника еще не подтверждено официальными источниками.

Запущен Dec 9, 2022 с Yellow Sea Launch Area

Loading…

Ближайшие Пролёты (ближайшие 24 часа)

TLE

СвежийSource: Space-Track

Эпоха: Sep 14, 2026, 15:30 UTC

1 54692U 22167L   26257.64599890  .00008206  00000-0  24136-3 0  9991
2 54692  97.7004  71.0537 0007976 152.3744 207.7924 15.35339316209060

Отслеживайте JILIN-1 GAOFEN 03D-47 в реальном времени с AllMySat

Download on the App Store